Location: Ravensburg
(48.5621°N, 13.4088°E)
Time: 02:06:11
(UTC+01:00)

ISS - Pass Details

Date: 14 November 2017
Orbit: 402 x 407 km, 51.6° (Epoch: 21 November)

Event Time Altitude Azimuth Distance (km) Brightness Sun altitude
Exits shadow 04:12:35 14° 88° (E) 1,226 -0.6 -29.7°
Drops below altitude 10° 04:13:10 10° 90° (E) 1,455 -0.1 -29.6°
Sets 04:15:17 0° 95° (E) 2,313 1.2 -29.3°
